User: anonymous   Login
Location: Cypress Hills Dark-Sky Preserve - CHICO
(49.6176°N, 110.2634°W)
Time: 18:17:54
(UTC-06:00)
Language:

SPOT 5 - Orbit

View from above orbital plane
View from above orbital plane
View from above satellite
View from above satellite

Ground track
Ground track

The orbit data is extracted from the following two-line orbital elements,

1 27421U 02021A   15089.48517337  .00000135  00000-0  83139-4 0  9999
2 27421 098.5209 147.9240 0001355 101.2610 017.8180 14.20124058668959
Epoch (UTC): 30 March 2015 11:38:38
Eccentricity: 0.0001355
inclination: 98.5209°
perigee height: 824 km
apogee height: 826 km
right ascension of ascending node: 147.9240°
argument of perigee: 101.2610°
revolutions per day: 14.20124058
mean anomaly at epoch: 17.8180°
orbit number at epoch: 66895

The dashed part of the orbit path shows where the satellite is in the earth's shadow,  

DLR